Location: ????????
(55.8351°N, 38.7040°E)
Time: 12:48:24
(UTC+00:00)

Cosmos 2369 Rocket - Pass Details

Date: 14 April 2024
Orbit: 830 x 850 km, 71.0° (Epoch: 23 May)

Event Time Altitude Azimuth Distance (km) Brightness Sun altitude
Rises 01:29:49 0° 325° (NW) 3,401 5.3 -7.5°
Reaches altitude 10° 01:32:17 10° 326° (NW) 2,460 4.6 -7.2°
Maximum altitude 01:37:56 82° 55° (NE) 848 2.4 -6.5°
Drops below altitude 10° 01:43:32 10° 144° (SE) 2,436 4.7 -5.8°
Sets 01:45:58 0° 145° (SE) 3,365 5.5 -5.5°
